Content
SEND FEEDBACK

Daily
Averages
Monthly
Summary
South Africa

STELLENBOSCH, SOUTH AFRICA


Home > Africa > South Africa
Elevation: 702 feet     Latitude: 33 51S     Longitude: 018 49E

WEATHER
 
SELECT A DAY
Number of Records: 190,649;   Date Range: 7/1/96 - 8/18/14
 
SHARE

PRINT THIS DATA

[ ← Previous Day ]
WEATHER ALMANAC - JANUARY 11, 2014
[ Next Day → ]
[ °C ]   °F
Weather ElementAverageHighLow
Temperature67 °F73.4 °F (12:00 pm)59 °F (4:00 am)
Dewpoint53.6 °F55.4 °F (10:00 am)51.8 °F (5:00 pm)
Humidity60.4 %82 % (4:00 am)43 % (2:00 pm)
Barometer30.04 in30.09 in (11:00 pm)30.01 in (3:00 am)
Wind Speed12.7 mph20.7 mph (4:00 pm)
Weather ElementAverage
Visibility12.5 mi
Wind DirectionSSW (187.7 °)

Weather ElementTotal
Precipitation---
Cooling Degree Days1.2 (Base 65)
Growing Degree Days16.2 (Base 50)
Averaged from 31 records on January 11, 2014
WEATHER CONDITIONS BREAKOUT
WIND DIRECTION BREAKOUT
WEATHER BY HOUR - JANUARY 11, 2014
[ °C ]   °F
Local TimeTemperatureDewpointHumidityBarometerVisibilityWind DirectionWind SpeedGust SpeedPrecipitationEventsConditions
1:00 AM62.6 °F53.6 °F72 %30.06 in6.2 miSouth (190°)10.4 mphPartly Cloudy
2:00 AM62.0 °F54.0 °F68 %30.05 in12.0 miSouth (190°)11.5 mphScattered Clouds
2:00 AM62.6 °F53.6 °F72 %30.04 in6.2 miSouth (190°)11.5 mphPartly Cloudy
3:00 AM62.6 °F53.6 °F72 %30.01 in6.2 miSouth (180°)11.5 mphPartly Cloudy
4:00 AM59.0 °F53.6 °F82 %30.01 in6.2 miSouth (170°)6.9 mphPartly Cloudy
5:00 AM62.0 °F53.0 °F65 %30.02 in12.0 miSouth (180°)10.4 mphScattered Clouds
5:00 AM60.8 °F53.6 °F77 %30.01 in6.2 miSouth (170°)10.4 mphPartly Cloudy
6:00 AM62.6 °F53.6 °F72 %30.04 in6.2 miSSW (200°)10.4 mphPartly Cloudy
7:00 AM62.6 °F53.6 °F72 %30.04 in6.2 miSSW (210°)6.9 mphPartly Cloudy
8:00 AM67.0 °F54.0 °F54 %30.05 in25.0 miSouth (170°)9.2 mphScattered Clouds
8:00 AM66.2 °F53.6 °F64 %30.04 in6.2 miSouth (180°)10.4 mphPartly Cloudy
9:00 AM68.0 °F53.6 °F60 %30.04 in6.2 miSW (230°)6.9 mphPartly Cloudy
10:00 AM71.6 °F55.4 °F57 %30.04 inSSW (210°)8.1 mphClear
11:00 AM72.0 °F55.0 °F44 %30.05 in25.0 miSouth (190°)6.9 mph
11:00 AM71.6 °F53.6 °F53 %30.04 inSouth (180°)6.9 mphClear
12:00 PM73.4 °F55.4 °F53 %30.04 inSSW (200°)8.1 mphClear
1:00 PM73.4 °F55.4 °F53 %30.04 inSSW (210°)11.5 mphClear
2:00 PM72.0 °F54.0 °F43 %30.05 in19.0 miSouth (180°)17.3 mph
2:00 PM73.4 °F55.4 °F53 %30.04 inSouth (180°)17.3 mphClear
3:00 PM71.6 °F53.6 °F53 %30.04 inSouth (180°)19.6 mphClear
4:00 PM71.6 °F53.6 °F53 %30.04 inSouth (180°)20.7 mphClear
5:00 PM71.0 °F54.0 °F44 %30.02 in19.0 miSouth (180°)20.7 mph
5:00 PM69.8 °F51.8 °F53 %30.01 inSouth (180°)20.7 mphClear
6:00 PM69.8 °F51.8 °F53 %30.04 inSouth (180°)20.7 mphClear
7:00 PM68.0 °F53.6 °F60 %30.04 inSouth (190°)17.3 mphClear
8:00 PM66.0 °F52.0 °F50 %30.06 in19.0 miSouth (190°)15.0 mph
8:00 PM66.2 °F53.6 °F64 %30.04 inSouth (180°)16.1 mphClear
9:00 PM64.4 °F51.8 °F64 %30.06 inSouth (190°)13.8 mphClear
10:00 PM64.4 °F53.6 °F68 %30.06 inSouth (180°)13.8 mphClear
11:00 PM64.0 °F52.0 °F56 %30.09 in25.0 miSouth (190°)11.5 mph
11:00 PM64.4 °F53.6 °F68 %30.06 inSouth (190°)12.7 mphClear
Hourly data recorded from FACT, located miles away from Stellenbosch, South Africa







STORIES FROM OUR PARTNERS